When you browse on this site, cookies collect data to enhance your experience and personalize the content and advertising you see.
Visit our Privacy Policy to learn more. By continuing to use the site, you agree to this use of cookies and data.
  • In France
  • List of Countries
  • For 7 days
  • Water Temperature
  • Weather Map
  • Weather Widgets
  • user-avatar
    Login

    Hourly Weather Wiktoria

    Today, 14 December, Saturday

    Time Temperature Precipitation Wind Pressure Humidity
    00:00 +15°C° 0 mm 2 mps 749 mmHg 74%
    01:00 +15°C° 0 mm 2 mps 749 mmHg 78%
    02:00 +14°C° 0 mm 2 mps 748 mmHg 82%
    03:00 +14°C° 0 mm 2 mps 748 mmHg 86%
    04:00 +13°C° 0 mm 1 mps 748 mmHg 89%
    05:00 +14°C° 0 mm 2 mps 748 mmHg 81%
    06:00 +16°C° 0 mm 3 mps 749 mmHg 73%
    07:00 +17°C° 0 mm 4 mps 749 mmHg 66%
    08:00 +19°C° 0 mm 4 mps 749 mmHg 59%
    09:00 +20°C° 0 mm 4 mps 749 mmHg 52%
    10:00 +21°C° 0 mm 5 mps 749 mmHg 47%
    11:00 +23°C° 0 mm 5 mps 748 mmHg 43%
    12:00 +25°C° 0 mm 5 mps 748 mmHg 39%
    13:00 +27°C° 0 mm 5 mps 748 mmHg 36%
    14:00 +27°C° 0 mm 5 mps 747 mmHg 36%
    15:00 +27°C° 0 mm 5 mps 747 mmHg 37%
    16:00 +27°C° 0 mm 5 mps 746 mmHg 37%
    17:00 +26°C° 0 mm 5 mps 746 mmHg 41%
    18:00 +23°C° 0 mm 5 mps 747 mmHg 45%
    19:00 +22°C° 0 mm 5 mps 747 mmHg 49%
    20:00 +20°C° 0 mm 4 mps 747 mmHg 56%
    21:00 +19°C° 0 mm 3 mps 747 mmHg 63%
    22:00 +17°C° 0 mm 3 mps 748 mmHg 71%
    23:00 +16°C° 0 mm 3 mps 747 mmHg 74%

    Tomorrow, 15 December, Sunday

    Time Temperature Precipitation Wind Pressure Humidity
    00:00 +15°C° 0 mm 2 mps 747 mmHg 77%
    01:00 +15°C° 0 mm 2 mps 747 mmHg 79%
    02:00 +15°C° 0 mm 2 mps 746 mmHg 80%
    03:00 +14°C° 0 mm 1 mps 746 mmHg 81%
    04:00 +14°C° 0 mm 1 mps 745 mmHg 81%
    05:00 +15°C° 0 mm 1 mps 746 mmHg 75%
    06:00 +18°C° 0 mm 1 mps 746 mmHg 69%
    07:00 +19°C° 0 mm 1 mps 746 mmHg 63%
    08:00 +20°C° 0 mm 2 mps 746 mmHg 55%
    09:00 +22°C° 0 mm 3 mps 746 mmHg 48%
    10:00 +25°C° 0 mm 4 mps 746 mmHg 40%
    11:00 +27°C° 0 mm 4 mps 745 mmHg 34%
    12:00 +29°C° 0 mm 5 mps 745 mmHg 27%
    13:00 +32°C° 0 mm 6 mps 744 mmHg 21%
    14:00 +32°C° 0 mm 6 mps 744 mmHg 18%
    15:00 +33°C° 0 mm 7 mps 743 mmHg 16%
    16:00 +33°C° 0 mm 7 mps 743 mmHg 13%
    17:00 +30°C° 0 mm 7 mps 743 mmHg 16%
    18:00 +29°C° 0 mm 6 mps 744 mmHg 18%
    19:00 +28°C° 0 mm 5 mps 744 mmHg 20%
    20:00 +25°C° 0 mm 5 mps 745 mmHg 28%
    21:00 +22°C° 0 mm 4 mps 745 mmHg 35%
    22:00 +19°C° 0 mm 3 mps 746 mmHg 43%
    23:00 +18°C° 0 mm 3 mps 746 mmHg 47%

    Day after tomorrow, 16 December, Monday

    Time Temperature Precipitation Wind Pressure Humidity
    00:00 +17°C° 0 mm 3 mps 746 mmHg 52%
    01:00 +16°C° 0 mm 3 mps 746 mmHg 56%
    02:00 +14°C° 0 mm 3 mps 746 mmHg 60%
    03:00 +13°C° 0 mm 3 mps 746 mmHg 64%
    04:00 +13°C° 0 mm 3 mps 746 mmHg 67%
    05:00 +14°C° 0 mm 3 mps 747 mmHg 63%
    06:00 +17°C° 0 mm 3 mps 747 mmHg 59%
    07:00 +18°C° 0 mm 4 mps 748 mmHg 54%
    08:00 +21°C° 0 mm 4 mps 748 mmHg 46%
    09:00 +25°C° 0 mm 5 mps 748 mmHg 38%
    10:00 +27°C° 0 mm 5 mps 748 mmHg 30%
    11:00 +29°C° 0 mm 6 mps 748 mmHg 28%
    12:00 +32°C° 0 mm 6 mps 748 mmHg 26%
    13:00 +33°C° 0 mm 7 mps 748 mmHg 25%
    14:00 +33°C° 0 mm 7 mps 747 mmHg 25%
    15:00 +33°C° 0 mm 7 mps 747 mmHg 25%
    16:00 +33°C° 0 mm 8 mps 747 mmHg 25%
    17:00 +32°C° 0 mm 7 mps 747 mmHg 29%
    18:00 +29°C° 0 mm 7 mps 748 mmHg 32%
    19:00 +27°C° 0 mm 7 mps 749 mmHg 35%
    20:00 +24°C° 0 mm 6 mps 749 mmHg 41%
    21:00 +22°C° 0 mm 5 mps 750 mmHg 47%
    22:00 +20°C° 0 mm 4 mps 750 mmHg 54%
    23:00 +19°C° 0 mm 4 mps 750 mmHg 57%

    17 December, Tuesday

    Time Temperature Precipitation Wind Pressure Humidity
    00:00 +18°C° 0 mm 4 mps 750 mmHg 60%
    01:00 +17°C° 0 mm 4 mps 750 mmHg 64%
    02:00 +17°C° 0 mm 3 mps 750 mmHg 65%
    03:00 +16°C° 0 mm 3 mps 750 mmHg 67%
    04:00 +16°C° 0 mm 3 mps 750 mmHg 68%
    05:00 +17°C° 0 mm 3 mps 751 mmHg 63%
    06:00 +19°C° 0 mm 3 mps 751 mmHg 58%
    07:00 +21°C° 0 mm 3 mps 752 mmHg 53%
    08:00 +24°C° 0 mm 3 mps 751 mmHg 46%
    09:00 +27°C° 0 mm 3 mps 751 mmHg 39%
    10:00 +30°C° 0 mm 3 mps 751 mmHg 32%
    11:00 +32°C° 0 mm 2 mps 751 mmHg 27%
    12:00 +35°C° 0 mm 2 mps 750 mmHg 23%
    13:00 +37°C° 0 mm 2 mps 749 mmHg 18%
    14:00 +38°C° 0 mm 2 mps 749 mmHg 17%
    15:00 +39°C° 0 mm 1 mps 748 mmHg 16%
    16:00 +39°C° 0 mm 1 mps 748 mmHg 14%
    17:00 +37°C° 0 mm 1 mps 748 mmHg 16%
    18:00 +35°C° 0 mm 1 mps 748 mmHg 18%
    19:00 +34°C° 0 mm 1 mps 748 mmHg 19%
    20:00 +32°C° 0 mm 1 mps 749 mmHg 21%
    21:00 +31°C° 0 mm 1 mps 749 mmHg 23%
    22:00 +29°C° 0 mm 1 mps 749 mmHg 24%
    23:00 +28°C° 0 mm 1 mps 749 mmHg 27%

    18 December, Wednesday

    Time Temperature Precipitation Wind Pressure Humidity
    00:00 +27°C° 0 mm 1 mps 749 mmHg 30%
    01:00 +26°C° 0 mm 1 mps 748 mmHg 32%
    02:00 +25°C° 0 mm 2 mps 748 mmHg 34%
    03:00 +24°C° 0 mm 2 mps 748 mmHg 36%
    04:00 +24°C° 0 mm 3 mps 748 mmHg 37%
    05:00 +25°C° 0 mm 4 mps 749 mmHg 38%
    06:00 +26°C° 0 mm 4 mps 749 mmHg 38%
    07:00 +27°C° 0 mm 5 mps 749 mmHg 39%
    08:00 +30°C° 0 mm 5 mps 749 mmHg 33%
    09:00 +34°C° 0 mm 5 mps 749 mmHg 27%
    10:00 +37°C° 0 mm 5 mps 749 mmHg 22%
    11:00 +40°C° 0 mm 5 mps 748 mmHg 18%
    12:00 +42°C° 0 mm 4 mps 747 mmHg 14%
    13:00 +44°C° 0 mm 4 mps 747 mmHg 10%
    14:00 +45°C° 0 mm 4 mps 746 mmHg 10%
    15:00 +45°C° 0 mm 4 mps 745 mmHg 9%
    16:00 +47°C° 0 mm 4 mps 744 mmHg 8%
    17:00 +44°C° 0 mm 3 mps 744 mmHg 8%
    18:00 +43°C° 0 mm 3 mps 744 mmHg 9%
    19:00 +40°C° 0 mm 2 mps 744 mmHg 10%
    20:00 +38°C° 0 mm 3 mps 744 mmHg 12%
    21:00 +36°C° 0 mm 4 mps 744 mmHg 14%
    22:00 +33°C° 0 mm 4 mps 745 mmHg 17%
    23:00 +30°C° 0 mm 5 mps 745 mmHg 24%

    19 December, Thursday

    Time Temperature Precipitation Wind Pressure Humidity
    00:00 +28°C° 0 mm 5 mps 745 mmHg 31%
    01:00 +25°C° 0 mm 5 mps 745 mmHg 38%
    02:00 +23°C° 0 mm 5 mps 746 mmHg 43%
    03:00 +21°C° 0 mm 6 mps 746 mmHg 49%
    04:00 +20°C° 0 mm 6 mps 746 mmHg 55%
    05:00 +20°C° 0 mm 6 mps 747 mmHg 52%
    06:00 +21°C° 0 mm 7 mps 748 mmHg 50%
    07:00 +22°C° 0 mm 7 mps 748 mmHg 48%
    08:00 +24°C° 0 mm 7 mps 749 mmHg 40%
    09:00 +28°C° 0 mm 8 mps 749 mmHg 32%
    10:00 +31°C° 0 mm 8 mps 750 mmHg 24%
    11:00 +33°C° 0 mm 8 mps 749 mmHg 20%
    12:00 +34°C° 0 mm 8 mps 749 mmHg 17%
    13:00 +37°C° 0 mm 8 mps 749 mmHg 13%
    14:00 +35°C° 0 mm 8 mps 749 mmHg 13%
    15:00 +35°C° 0 mm 9 mps 749 mmHg 13%
    16:00 +35°C° 0 mm 9 mps 749 mmHg 13%
    17:00 +32°C° 0 mm 8 mps 749 mmHg 14%
    18:00 +29°C° 0 mm 8 mps 749 mmHg 14%
    19:00 +27°C° 0 mm 7 mps 750 mmHg 15%
    20:00 +24°C° 0 mm 7 mps 750 mmHg 18%
    21:00 +21°C° 0 mm 6 mps 751 mmHg 21%
    22:00 +19°C° 0 mm 5 mps 751 mmHg 24%
    23:00 +17°C° 0 mm 5 mps 751 mmHg 31%
    Show more